Flag for Canada Weather past 2 weeks in Cranbrook, British Columbia, Canada

Now
68 °F

Broken clouds.


Feels Like: 68 °F
Forecast: 43 / 72 °F
Wind: 6 mph from Southeast

Location: Cranbrook

Current Time: Apr 21, 2015 at 3:44:35 PM

Latest Report: Apr 21, 2015 at 3:00 PM


Visibility: 25 mi

Pressure: 29.78 "Hg

Humidity: 30%

Dew point: 36 °F

Location of CranbrookLocation

Historic Weather in Cranbrook — Graph

°F

Cranbrook temperature yesterday

Maximum temperature yesterday: 68 °F (at 5:00 PM)
Minimum temperature yesterday: 36 °F (at 7:00 AM)
Average temperature yesterday: 51 °F

Past Weeks' High & Low Weather Summary

 TemperatureHumidityPressure
High68 °F (Apr 20, 5:00 PM)100% (Apr 7, 2:00 AM)30.40 "Hg (Apr 7, 2:00 AM)
Low25 °F (Apr 12, 4:00 AM)14% (Apr 8, 5:00 PM)29.54 "Hg (Apr 11, 11:00 AM)
Average44 °F50%30.02 "Hg
* Reported Apr 6 2:00 PM — Apr 21 2:00 PM, Cranbrook, Weather by CustomWeather, © 2015

Note: Actual official high and low records may vary slightly from our data, if they occured in-between our weather recording intervals... More about our weather records

Advertising

Cranbrook weather history for previous 24 hours

 ConditionsComfort  
Time TempWeatherWind HumidityBarometerVisibility
2:00 PM
Tue, Apr 21
66 °FScattered clouds.7 mph32%29.80 "Hg25 mi
1:00 PM63 °FPassing clouds.2 mph34%29.84 "Hg25 mi
12:00 PM57 °FPassing clouds.2 mph39%29.86 "Hg25 mi
11:00 AM55 °FPassing clouds.6 mph41%29.88 "Hg25 mi
10:00 AM50 °FPassing clouds.5 mph50%29.91 "Hg25 mi
9:00 AM46 °FSunny.2 mph57%29.91 "Hg25 mi
8:00 AM41 °FPassing clouds.5 mph66%29.91 "Hg25 mi
7:00 AM37 °FPassing clouds.3 mph70%29.90 "Hg25 mi
6:00 AM41 °FPassing clouds.8 mph66%29.88 "Hg25 mi
5:00 AM43 °FPassing clouds.6 mph61%29.87 "Hg25 mi
4:00 AM43 °FPassing clouds.6 mph61%29.87 "Hg25 mi
3:00 AM46 °FPassing clouds.7 mph53%29.86 "Hg25 mi
2:00 AM50 °FPassing clouds.9 mph47%29.85 "Hg25 mi
1:00 AM50 °FPassing clouds.8 mph47%29.85 "Hg25 mi
12:00 AM52 °FClear.7 mph44%29.84 "Hg25 mi
11:00 PM
Mon, Apr 20
54 °FPassing clouds.7 mph41%29.84 "Hg25 mi
10:00 PM48 °FPartly sunny.3 mph50%29.85 "Hg25 mi
9:00 PM55 °FPartly sunny.3 mph38%29.83 "Hg25 mi
8:00 PM61 °FBroken clouds.2 mph31%29.82 "Hg25 mi
7:00 PM64 °FBroken clouds.3 mph26%29.83 "Hg25 mi
6:00 PM68 °FPartly sunny.6 mph23%29.82 "Hg25 mi
5:00 PM68 °FPartly sunny.6 mph23%29.85 "Hg25 mi
4:00 PM64 °FScattered clouds.No wind24%29.87 "Hg25 mi
3:00 PM63 °FScattered clouds.2 mph25%29.90 "Hg25 mi
Weather by CustomWeather, © 2015

See weather overviewHow to use our weather pages